| time (UTC) | temp F | wind direction | speed MPH | gust MPH | rain 1hr in | rain 24hr in | rain mn in | humidity % | barometer mb |
| 20260502152115 | 74 | 102 | 2.0 | 3.0 | 0.00 | 0.00 | 0.00 | 36 | 1015.0 |
| 20260502151612 | 74 | 99 | 5.0 | 6.0 | 0.00 | 0.00 | 0.00 | 37 | 1015.0 |
| 20260502151109 | 73 | 85 | 3.0 | 5.0 | 0.00 | 0.00 | 0.00 | 39 | 1015.1 |
| 20260502150607 | 73 | 29 | 4.0 | 5.0 | 0.00 | 0.00 | 0.00 | 38 | 1015.1 |
| 20260502130451 | 60 | 177 | 0.0 | 1.0 | 0.00 | 0.00 | 0.00 | 55 | 1013.5 |
| 20260502123434 | 59 | 189 | 4.0 | 5.0 | 0.00 | 0.00 | 0.00 | 51 | 1013.1 |
| 20260502122931 | 59 | 190 | 1.0 | 1.0 | 0.00 | 0.00 | 0.00 | 50 | 1013.0 |
| 20260502122427 | 59 | 184 | 0.0 | 1.0 | 0.00 | 0.00 | 0.00 | 49 | 1012.9 |
| 20260502121926 | 59 | 150 | 1.0 | 1.0 | 0.00 | 0.00 | 0.00 | 48 | 1012.8 |
| 20260502121422 | 60 | 186 | 3.0 | 3.0 | 0.00 | 0.00 | 0.00 | 46 | 1012.9 |
| 20260502120920 | 60 | 185 | 0.0 | 0.0 | 0.00 | 0.00 | 0.00 | 45 | 1012.8 |
| 20260502120416 | 60 | 204 | 1.0 | 2.0 | 0.00 | 0.00 | 0.00 | 44 | 1012.9 |
| 20260502115913 | 60 | 195 | 1.0 | 1.0 | 0.00 | 0.00 | 0.00 | 42 | 1013.0 |
| 20260502115411 | 60 | 180 | 0.0 | 1.0 | 0.00 | 0.00 | 0.00 | 42 | 1012.9 |
| 20260502114906 | 60 | 181 | 1.0 | 1.0 | 0.00 | 0.00 | 0.00 | 41 | 1012.9 |
| 20260502114404 | 62 | 186 | 1.0 | 1.0 | 0.00 | 0.00 | 0.00 | 41 | 1012.8 |
| 20260502113900 | 61 | 149 | 1.0 | 1.0 | 0.00 | 0.00 | 0.00 | 40 | 1012.7 |
| 20260502113358 | 60 | 191 | 1.0 | 1.0 | 0.00 | 0.00 | 0.00 | 41 | 1012.9 |
| 20260502112856 | 59 | 199 | 1.0 | 2.0 | 0.00 | 0.00 | 0.00 | 43 | 1013.0 |
| 20260502112354 | 58 | 166 | 1.0 | 1.0 | 0.00 | 0.00 | 0.00 | 45 | 1013.0 |
| 20260502111851 | 58 | 133 | 1.0 | 1.0 | 0.00 | 0.00 | 0.00 | 44 | 1013.0 |
| 20260502111348 | 58 | 195 | 3.0 | 3.0 | 0.00 | 0.00 | 0.00 | 44 | 1012.9 |
| 20260502110846 | 58 | 195 | 5.0 | 5.0 | 0.00 | 0.00 | 0.00 | 44 | 1013.0 |
| 20260502110344 | 58 | 158 | 0.0 | 0.0 | 0.00 | 0.00 | 0.00 | 44 | 1012.9 |
| 20260502105841 | 59 | 209 | 0.0 | 0.0 | 0.00 | 0.00 | 0.00 | 44 | 1012.9 |
| 20260502105337 | 59 | 186 | 3.0 | 3.0 | 0.00 | 0.00 | 0.00 | 43 | 1013.1 |
| 20260502104835 | 59 | 194 | 3.0 | 3.0 | 0.00 | 0.00 | 0.00 | 43 | 1012.9 |
| 20260502104332 | 59 | 183 | 3.0 | 3.0 | 0.00 | 0.00 | 0.00 | 42 | 1013.0 |
| 20260502103829 | 59 | 174 | 0.0 | 1.0 | 0.00 | 0.00 | 0.00 | 42 | 1012.9 |
| 20260502103327 | 60 | 216 | 1.0 | 1.0 | 0.00 | 0.00 | 0.00 | 41 | 1012.8 |
| 20260502102824 | 59 | 184 | 3.0 | 5.0 | 0.00 | 0.00 | 0.00 | 41 | 1012.7 |
| 20260502102320 | 59 | 179 | 3.0 | 5.0 | 0.00 | 0.00 | 0.00 | 43 | 1012.9 |
| 20260502101818 | 59 | 182 | 3.0 | 3.0 | 0.00 | 0.00 | 0.00 | 43 | 1012.4 |
| 20260502101316 | 59 | 177 | 3.0 | 3.0 | 0.00 | 0.00 | 0.00 | 43 | 1012.5 |
| 20260502100814 | 59 | 199 | 1.0 | 1.0 | 0.00 | 0.00 | 0.00 | 42 | 1012.5 |
| 20260502100313 | 60 | 169 | 3.0 | 3.0 | 0.00 | 0.00 | 0.00 | 42 | 1012.5 |
| 20260502091247 | 61 | 168 | 1.0 | 1.0 | 0.00 | 0.00 | 0.00 | 38 | 1012.3 |
| 20260502090744 | 61 | 166 | 1.0 | 1.0 | 0.00 | 0.00 | 0.00 | 38 | 1012.5 |
| 20260502090241 | 61 | 207 | 1.0 | 1.0 | 0.00 | 0.00 | 0.00 | 37 | 1012.5 |
| 20260502071142 | 64 | 188 | 1.0 | 2.0 | 0.00 | 0.00 | 0.00 | 35 | 1012.8 |
| 20260502070640 | 64 | 143 | 2.0 | 2.0 | 0.00 | 0.00 | 0.00 | 35 | 1012.7 |
| 20260502070137 | 64 | 152 | 1.0 | 1.0 | 0.00 | 0.00 | 0.00 | 35 | 1012.5 |
| 20260502065635 | 64 | 187 | 1.0 | 1.0 | 0.00 | 0.00 | 0.00 | 35 | 1012.9 |
| 20260502065132 | 64 | 177 | 0.0 | 1.0 | 0.00 | 0.00 | 0.00 | 35 | 1012.8 |
| 20260502064631 | 65 | 205 | 1.0 | 1.0 | 0.00 | 0.00 | 0.00 | 34 | 1012.9 |
| 20260502064128 | 67 | 176 | 1.0 | 1.0 | 0.00 | 0.00 | 0.00 | 34 | 1012.7 |
| 20260502063626 | 67 | 129 | 1.0 | 1.0 | 0.00 | 0.00 | 0.00 | 33 | 1012.7 |
| 20260502063123 | 66 | 120 | 1.0 | 1.0 | 0.00 | 0.00 | 0.00 | 33 | 1012.5 |
| 20260502062620 | 69 | 206 | 2.0 | 2.0 | 0.00 | 0.00 | 0.00 | 32 | 1012.5 |
| 20260502062118 | 68 | 133 | 2.0 | 2.0 | 0.00 | 0.00 | 0.00 | 31 | 1012.3 |
| 20260502061616 | 69 | 207 | 1.0 | 1.0 | 0.00 | 0.00 | 0.00 | 31 | 1012.2 |
| 20260502061113 | 69 | 166 | 1.0 | 1.0 | 0.00 | 0.00 | 0.00 | 30 | 1012.3 |
| 20260502060613 | 68 | 154 | 1.0 | 2.0 | 0.00 | 0.00 | 0.00 | 31 | 1012.0 |
| 20260502060110 | 67 | 123 | 2.0 | 2.0 | 0.00 | 0.00 | 0.00 | 32 | 1012.1 |
| 20260502055608 | 67 | 175 | 0.0 | 0.0 | 0.00 | 0.00 | 0.00 | 32 | 1012.2 |
| 20260502055106 | 69 | 207 | 1.0 | 2.0 | 0.00 | 0.00 | 0.00 | 31 | 1012.1 |
| 20260502054605 | 69 | 181 | 0.0 | 0.0 | 0.00 | 0.00 | 0.00 | 31 | 1012.0 |
| 20260502054101 | 69 | 171 | 1.0 | 1.0 | 0.00 | 0.00 | 0.00 | 31 | 1012.0 |
| 20260502053558 | 71 | 184 | 0.0 | 0.0 | 0.00 | 0.00 | 0.00 | 31 | 1011.9 |
| 20260502053056 | 71 | 167 | 0.0 | 0.0 | 0.00 | 0.00 | 0.00 | 31 | 1012.2 |
| 20260502052554 | 72 | 184 | 1.0 | 1.0 | 0.00 | 0.00 | 0.00 | 30 | 1012.0 |
| 20260502052052 | 73 | 317 | 1.0 | 1.0 | 0.00 | 0.00 | 0.00 | 28 | 1011.8 |
| 20260502051550 | 72 | 345 | 1.0 | 1.0 | 0.00 | 0.00 | 0.00 | 29 | 1011.7 |
| 20260502051047 | 72 | 333 | 1.0 | 2.0 | 0.00 | 0.00 | 0.00 | 30 | 1011.6 |
| 20260502050543 | 72 | 241 | 1.0 | 1.0 | 0.00 | 0.00 | 0.00 | 30 | 1011.9 |
| 20260502050040 | 72 | 254 | 2.0 | 2.0 | 0.00 | 0.00 | 0.00 | 30 | 1011.7 |
| 20260502045537 | 72 | 240 | 1.0 | 1.0 | 0.00 | 0.00 | 0.00 | 30 | 1011.8 |
| 20260502045034 | 72 | 350 | 1.0 | 1.0 | 0.00 | 0.00 | 0.00 | 29 | 1011.7 |
| 20260502044530 | 72 | 224 | 0.0 | 0.0 | 0.00 | 0.00 | 0.00 | 30 | 1011.7 |
| 20260502044027 | 72 | 218 | 1.0 | 1.0 | 0.00 | 0.00 | 0.00 | 30 | 1011.6 |
| 20260502043525 | 73 | 178 | 1.0 | 1.0 | 0.00 | 0.00 | 0.00 | 29 | 1011.7 |
| 20260502043021 | 74 | 201 | 1.0 | 1.0 | 0.00 | 0.00 | 0.00 | 27 | 1011.7 |
| 20260502042516 | 74 | 338 | 1.0 | 1.0 | 0.00 | 0.00 | 0.00 | 27 | 1011.4 |
| 20260502042014 | 74 | 358 | 2.0 | 2.0 | 0.00 | 0.00 | 0.00 | 27 | 1011.5 |
| 20260502041512 | 74 | 354 | 1.0 | 2.0 | 0.00 | 0.00 | 0.00 | 27 | 1011.6 |
| 20260502041008 | 73 | 19 | 2.0 | 2.0 | 0.00 | 0.00 | 0.00 | 28 | 1011.0 |
| 20260502040505 | 73 | 340 | 1.0 | 1.0 | 0.00 | 0.00 | 0.00 | 28 | 1011.5 |
| 20260502040002 | 73 | 186 | 0.0 | 0.0 | 0.00 | 0.00 | 0.00 | 28 | 1011.1 |
| 20260502035457 | 73 | 186 | 0.0 | 0.0 | 0.00 | 0.00 | 0.00 | 27 | 1011.2 |
| 20260502034955 | 73 | 189 | 0.0 | 0.0 | 0.00 | 0.00 | 0.00 | 28 | 1010.9 |
| 20260502034453 | 73 | 186 | 0.0 | 0.0 | 0.00 | 0.00 | 0.00 | 27 | 1011.1 |
| 20260502033952 | 74 | 186 | 0.0 | 0.0 | 0.00 | 0.00 | 0.00 | 27 | 1011.0 |
| 20260502033449 | 75 | 186 | 0.0 | 0.0 | 0.00 | 0.00 | 0.00 | 26 | 1011.0 |
| 20260502032945 | 76 | 228 | 0.0 | 1.0 | 0.00 | 0.00 | 0.00 | 25 | 1010.9 |
| 20260502032442 | 76 | 171 | 0.0 | 0.0 | 0.00 | 0.00 | 0.00 | 25 | 1011.0 |
| 20260502031939 | 77 | 114 | 0.0 | 1.0 | 0.00 | 0.00 | 0.00 | 24 | 1010.7 |
| 20260502031438 | 77 | 347 | 1.0 | 2.0 | 0.00 | 0.00 | 0.00 | 24 | 1010.6 |
| 20260502030935 | 77 | 324 | 1.0 | 2.0 | 0.00 | 0.00 | 0.00 | 23 | 1010.9 |
| 20260502030433 | 77 | 2 | 2.0 | 2.0 | 0.00 | 0.00 | 0.00 | 23 | 1010.4 |
| 20260502025931 | 77 | 350 | 2.0 | 2.0 | 0.00 | 0.00 | 0.00 | 23 | 1010.5 |
| 20260502025427 | 78 | 344 | 2.0 | 2.0 | 0.00 | 0.00 | 0.00 | 23 | 1010.5 |
| 20260502024926 | 78 | 4 | 3.0 | 3.0 | 0.00 | 0.00 | 0.00 | 23 | 1010.3 |
| 20260502024424 | 78 | 7 | 3.0 | 3.0 | 0.00 | 0.00 | 0.00 | 23 | 1010.3 |
| 20260502023921 | 78 | 358 | 2.0 | 2.0 | 0.00 | 0.00 | 0.00 | 22 | 1010.2 |
| 20260502023419 | 78 | 357 | 2.0 | 2.0 | 0.00 | 0.00 | 0.00 | 23 | 1010.2 |
| 20260502022916 | 78 | 7 | 2.0 | 2.0 | 0.00 | 0.00 | 0.00 | 22 | 1010.3 |
| 20260502022412 | 78 | 177 | 1.0 | 1.0 | 0.00 | 0.00 | 0.00 | 23 | 1010.1 |
| 20260502021909 | 78 | 341 | 1.0 | 2.0 | 0.00 | 0.00 | 0.00 | 22 | 1010.1 |
| 20260502021406 | 78 | 313 | 2.0 | 2.0 | 0.00 | 0.00 | 0.00 | 22 | 1009.9 |
| 20260502020904 | 79 | 276 | 2.0 | 3.0 | 0.00 | 0.00 | 0.00 | 22 | 1009.9 |
| 20260502020401 | 80 | 144 | 5.0 | 7.0 | 0.00 | 0.00 | 0.00 | 21 | 1009.9 |
| 20260502015858 | 79 | 340 | 4.0 | 5.0 | 0.00 | 0.00 | 0.00 | 21 | 1009.8 |
| 20260502015355 | 80 | 330 | 4.0 | 5.0 | 0.00 | 0.00 | 0.00 | 21 | 1009.8 |
| 20260502014852 | 80 | 355 | 3.0 | 3.0 | 0.00 | 0.00 | 0.00 | 22 | 1009.8 |
| 20260502014349 | 80 | 336 | 3.0 | 5.0 | 0.00 | 0.00 | 0.00 | 22 | 1009.6 |
| 20260502013845 | 80 | 251 | 6.0 | 7.0 | 0.00 | 0.00 | 0.00 | 21 | 1009.7 |
| 20260502013341 | 80 | 312 | 3.0 | 3.0 | 0.00 | 0.00 | 0.00 | 21 | 1009.6 |
| 20260502012838 | 81 | 315 | 2.0 | 2.0 | 0.00 | 0.00 | 0.00 | 21 | 1009.7 |
| 20260502012336 | 81 | 11 | 2.0 | 3.0 | 0.00 | 0.00 | 0.00 | 20 | 1009.5 |
| 20260502011833 | 81 | 240 | 2.0 | 3.0 | 0.00 | 0.00 | 0.00 | 22 | 1009.7 |
| 20260502011329 | 81 | 353 | 3.0 | 3.0 | 0.00 | 0.00 | 0.00 | 21 | 1009.9 |
| 20260502010826 | 81 | 311 | 2.0 | 3.0 | 0.00 | 0.00 | 0.00 | 22 | 1009.4 |
| 20260502010323 | 81 | 307 | 3.0 | 3.0 | 0.00 | 0.00 | 0.00 | 20 | 1009.6 |
| 20260502005819 | 81 | 301 | 3.0 | 3.0 | 0.00 | 0.00 | 0.00 | 20 | 1009.6 |
| 20260502005318 | 81 | 323 | 3.0 | 3.0 | 0.00 | 0.00 | 0.00 | 22 | 1009.5 |
| 20260502004815 | 82 | 171 | 3.0 | 5.0 | 0.00 | 0.00 | 0.00 | 22 | 1009.3 |
| 20260502004310 | 81 | 102 | 3.0 | 5.0 | 0.00 | 0.00 | 0.00 | 21 | 1009.1 |
| 20260502003808 | 82 | 284 | 7.0 | 8.0 | 0.00 | 0.00 | 0.00 | 21 | 1009.5 |
| 20260502003305 | 82 | 14 | 5.0 | 7.0 | 0.00 | 0.00 | 0.00 | 22 | 1009.5 |
| 20260502002801 | 82 | 29 | 6.0 | 7.0 | 0.00 | 0.00 | 0.00 | 22 | 1009.5 |
| 20260502002259 | 82 | 287 | 6.0 | 7.0 | 0.00 | 0.00 | 0.00 | 22 | 1009.5 |
| 20260502001755 | 83 | 357 | 4.0 | 6.0 | 0.00 | 0.00 | 0.00 | 24 | 1009.5 |
| 20260502001253 | 82 | 330 | 6.0 | 8.0 | 0.00 | 0.00 | 0.00 | 22 | 1009.5 |
| 20260502000746 | 83 | 109 | 3.0 | 3.0 | 0.00 | 0.00 | 0.00 | 22 | 1009.6 |
| 20260502000244 | 83 | 247 | 3.0 | 5.0 | 0.00 | 0.00 | 0.00 | 20 | 1009.4 |
| 20260501235738 | 81 | 333 | 5.0 | 6.0 | 0.00 | 0.00 | 0.00 | 24 | 1009.3 |
| 20260501235235 | 82 | 311 | 5.0 | 6.0 | 0.00 | 0.00 | 0.00 | 21 | 1009.4 |
| 20260501234731 | 82 | 238 | 4.0 | 5.0 | 0.00 | 0.00 | 0.00 | 22 | 1009.5 |
| 20260501234228 | 83 | 169 | 8.0 | 10.0 | 0.00 | 0.00 | 0.00 | 22 | 1009.3 |
| 20260501233726 | 83 | 354 | 3.0 | 5.0 | 0.00 | 0.00 | 0.00 | 22 | 1009.5 |
| 20260501233224 | 82 | 337 | 4.0 | 5.0 | 0.00 | 0.00 | 0.00 | 25 | 1009.4 |
| 20260501232719 | 82 | 41 | 3.0 | 3.0 | 0.00 | 0.00 | 0.00 | 23 | 1009.4 |
| 20260501232216 | 82 | 284 | 3.0 | 3.0 | 0.00 | 0.00 | 0.00 | 23 | 1009.4 |
| 20260501231714 | 82 | 15 | 4.0 | 5.0 | 0.00 | 0.00 | 0.00 | 22 | 1009.6 |
| 20260501231212 | 82 | 350 | 4.0 | 5.0 | 0.00 | 0.00 | 0.00 | 22 | 1009.5 |
| 20260501230710 | 82 | 301 | 3.0 | 3.0 | 0.00 | 0.00 | 0.00 | 24 | 1009.2 |
| 20260501230208 | 82 | 241 | 8.0 | 8.0 | 0.00 | 0.00 | 0.00 | 23 | 1009.5 |
| 20260501225705 | 82 | 319 | 5.0 | 6.0 | 0.00 | 0.00 | 0.00 | 23 | 1009.3 |
| 20260501225202 | 82 | 264 | 7.0 | 10.0 | 0.00 | 0.00 | 0.00 | 24 | 1009.4 |
| 20260501224658 | 82 | 321 | 3.0 | 3.0 | 0.00 | 0.00 | 0.00 | 25 | 1009.6 |
| 20260501224156 | 82 | 276 | 7.0 | 8.0 | 0.00 | 0.00 | 0.00 | 24 | 1009.9 |
| 20260501223652 | 82 | 335 | 8.0 | 9.0 | 0.00 | 0.00 | 0.00 | 24 | 1009.9 |
| 20260501223149 | 81 | 238 | 7.0 | 8.0 | 0.00 | 0.00 | 0.00 | 24 | 1010.2 |
| 20260501222645 | 82 | 315 | 1.0 | 2.0 | 0.00 | 0.00 | 0.00 | 25 | 1009.9 |
| 20260501222142 | 82 | 339 | 3.0 | 5.0 | 0.00 | 0.00 | 0.00 | 23 | 1009.8 |
| 20260501221639 | 82 | 200 | 7.0 | 8.0 | 0.00 | 0.00 | 0.00 | 24 | 1009.9 |
| 20260501221137 | 81 | 260 | 4.0 | 6.0 | 0.00 | 0.00 | 0.00 | 24 | 1010.1 |
| 20260501220634 | 81 | 198 | 3.0 | 3.0 | 0.00 | 0.00 | 0.00 | 24 | 1009.8 |
| 20260501220130 | 81 | 249 | 7.0 | 8.0 | 0.00 | 0.00 | 0.00 | 25 | 1010.2 |
| 20260501215627 | 81 | 253 | 7.0 | 8.0 | 0.00 | 0.00 | 0.00 | 24 | 1010.3 |
| 20260501215122 | 81 | 320 | 3.0 | 5.0 | 0.00 | 0.00 | 0.00 | 24 | 1010.3 |
| 20260501214618 | 81 | 307 | 4.0 | 5.0 | 0.00 | 0.00 | 0.00 | 25 | 1010.3 |
| 20260501214113 | 82 | 254 | 3.0 | 3.0 | 0.00 | 0.00 | 0.00 | 25 | 1010.4 |
| 20260501213611 | 82 | 14 | 5.0 | 5.0 | 0.00 | 0.00 | 0.00 | 23 | 1010.6 |
| 20260501213107 | 81 | 206 | 4.0 | 5.0 | 0.00 | 0.00 | 0.00 | 26 | 1010.5 |
| 20260501212603 | 81 | 254 | 1.0 | 1.0 | 0.00 | 0.00 | 0.00 | 24 | 1010.7 |
| 20260501212100 | 81 | 40 | 5.0 | 6.0 | 0.00 | 0.00 | 0.00 | 24 | 1010.8 |
| 20260501211557 | 82 | 257 | 2.0 | 2.0 | 0.00 | 0.00 | 0.00 | 24 | 1010.7 |
| 20260501211055 | 82 | 63 | 3.0 | 3.0 | 0.00 | 0.00 | 0.00 | 25 | 1010.8 |
| 20260501210551 | 80 | 267 | 3.0 | 3.0 | 0.00 | 0.00 | 0.00 | 25 | 1010.9 |
| 20260501210048 | 80 | 212 | 5.0 | 6.0 | 0.00 | 0.00 | 0.00 | 25 | 1010.9 |
| 20260501205544 | 80 | 346 | 7.0 | 10.0 | 0.00 | 0.00 | 0.00 | 26 | 1011.0 |
| 20260501205042 | 80 | 33 | 3.0 | 3.0 | 0.00 | 0.00 | 0.00 | 25 | 1011.5 |
| 20260501204538 | 79 | 174 | 8.0 | 10.0 | 0.00 | 0.00 | 0.00 | 28 | 1011.4 |
| 20260501204034 | 79 | 273 | 3.0 | 3.0 | 0.00 | 0.00 | 0.00 | 27 | 1011.1 |
| 20260501203531 | 80 | 243 | 8.0 | 9.0 | 0.00 | 0.00 | 0.00 | 27 | 1011.2 |
| 20260501203029 | 79 | 259 | 2.0 | 2.0 | 0.00 | 0.00 | 0.00 | 27 | 1011.4 |
| 20260501202525 | 78 | 228 | 0.0 | 1.0 | 0.00 | 0.00 | 0.00 | 28 | 1011.4 |
| 20260501202022 | 79 | 277 | 10.0 | 13.0 | 0.00 | 0.00 | 0.00 | 28 | 1011.4 |
| 20260501201519 | 79 | 15 | 5.0 | 6.0 | 0.00 | 0.00 | 0.00 | 28 | 1011.6 |
| 20260501201015 | 79 | 325 | 3.0 | 3.0 | 0.00 | 0.00 | 0.00 | 28 | 1011.6 |
| 20260501200513 | 79 | 333 | 2.0 | 2.0 | 0.00 | 0.00 | 0.00 | 27 | 1011.5 |
| 20260501200010 | 80 | 194 | 1.0 | 2.0 | 0.00 | 0.00 | 0.00 | 27 | 1011.7 |
| 20260501195507 | 79 | 245 | 3.0 | 5.0 | 0.00 | 0.00 | 0.00 | 29 | 1011.6 |
| 20260501195003 | 79 | 190 | 3.0 | 3.0 | 0.00 | 0.00 | 0.00 | 28 | 1011.8 |
| 20260501194458 | 78 | 320 | 3.0 | 3.0 | 0.00 | 0.00 | 0.00 | 29 | 1011.8 |
| 20260501193954 | 78 | 177 | 2.0 | 2.0 | 0.00 | 0.00 | 0.00 | 29 | 1012.0 |
| 20260501193452 | 77 | 249 | 4.0 | 5.0 | 0.00 | 0.00 | 0.00 | 29 | 1011.9 |
| 20260501192950 | 78 | 299 | 2.0 | 3.0 | 0.00 | 0.00 | 0.00 | 29 | 1012.0 |
| 20260501192447 | 77 | 118 | 3.0 | 3.0 | 0.00 | 0.00 | 0.00 | 32 | 1011.9 |
| 20260501191944 | 77 | 327 | 4.0 | 5.0 | 0.00 | 0.00 | 0.00 | 30 | 1012.1 |
| 20260501191441 | 77 | 284 | 5.0 | 7.0 | 0.00 | 0.00 | 0.00 | 34 | 1012.2 |
| 20260501190938 | 76 | 264 | 5.0 | 6.0 | 0.00 | 0.00 | 0.00 | 31 | 1012.1 |
| 20260501190434 | 76 | 280 | 5.0 | 8.0 | 0.00 | 0.00 | 0.00 | 32 | 1012.2 |
| 20260501185929 | 76 | 291 | 4.0 | 6.0 | 0.00 | 0.00 | 0.00 | 32 | 1012.4 |
| 20260501185426 | 78 | 313 | 4.0 | 5.0 | 0.00 | 0.00 | 0.00 | 31 | 1012.5 |
| 20260501184922 | 76 | 330 | 3.0 | 3.0 | 0.00 | 0.00 | 0.00 | 31 | 1012.5 |
| 20260501184418 | 76 | 353 | 4.0 | 6.0 | 0.00 | 0.00 | 0.00 | 31 | 1012.7 |
| 20260501183913 | 76 | 184 | 3.0 | 3.0 | 0.00 | 0.00 | 0.00 | 33 | 1012.8 |
| 20260501183411 | 75 | 250 | 8.0 | 9.0 | 0.00 | 0.00 | 0.00 | 32 | 1012.5 |
| 20260501182907 | 75 | 259 | 5.0 | 6.0 | 0.00 | 0.00 | 0.00 | 31 | 1012.8 |
| 20260501182404 | 75 | 258 | 4.0 | 5.0 | 0.00 | 0.00 | 0.00 | 33 | 1013.0 |
| 20260501181900 | 76 | 11 | 5.0 | 6.0 | 0.00 | 0.00 | 0.00 | 33 | 1012.9 |
| 20260501181357 | 75 | 283 | 6.0 | 8.0 | 0.00 | 0.00 | 0.00 | 35 | 1013.0 |
| 20260501180855 | 75 | 246 | 6.0 | 6.0 | 0.00 | 0.00 | 0.00 | 35 | 1013.1 |
| 20260501180351 | 74 | 275 | 3.0 | 5.0 | 0.00 | 0.00 | 0.00 | 34 | 1013.1 |
| 20260501175848 | 75 | 7 | 4.0 | 5.0 | 0.00 | 0.00 | 0.00 | 35 | 1013.2 |
| 20260501175345 | 74 | 238 | 4.0 | 5.0 | 0.00 | 0.00 | 0.00 | 39 | 1013.3 |
| 20260501174842 | 75 | 13 | 2.0 | 5.0 | 0.00 | 0.00 | 0.00 | 36 | 1013.1 |
| 20260501174339 | 74 | 358 | 5.0 | 6.0 | 0.00 | 0.00 | 0.00 | 35 | 1013.3 |
| 20260501173837 | 73 | 248 | 6.0 | 8.0 | 0.00 | 0.00 | 0.00 | 38 | 1013.4 |
| 20260501173334 | 74 | 224 | 2.0 | 2.0 | 0.00 | 0.00 | 0.00 | 38 | 1013.2 |
| 20260501172830 | 73 | 25 | 4.0 | 5.0 | 0.00 | 0.00 | 0.00 | 37 | 1013.3 |
| 20260501172325 | 72 | 338 | 3.0 | 3.0 | 0.00 | 0.00 | 0.00 | 38 | 1013.0 |
| 20260501171821 | 72 | 221 | 1.0 | 1.0 | 0.00 | 0.00 | 0.00 | 40 | 1013.2 |
| 20260501171318 | 72 | 221 | 3.0 | 3.0 | 0.00 | 0.00 | 0.00 | 40 | 1013.3 |
| 20260501170814 | 70 | 127 | 2.0 | 2.0 | 0.00 | 0.00 | 0.00 | 42 | 1013.3 |
| 20260501170312 | 71 | 218 | 1.0 | 2.0 | 0.00 | 0.00 | 0.00 | 43 | 1013.2 |
| 20260501165809 | 71 | 244 | 4.0 | 5.0 | 0.00 | 0.00 | 0.00 | 43 | 1013.2 |
| 20260501165307 | 71 | 329 | 6.0 | 7.0 | 0.00 | 0.00 | 0.00 | 44 | 1013.3 |
| 20260501164804 | 71 | 239 | 5.0 | 5.0 | 0.00 | 0.00 | 0.00 | 44 | 1013.1 |
| 20260501164301 | 71 | 327 | 2.0 | 2.0 | 0.00 | 0.00 | 0.00 | 44 | 1013.3 |
| 20260501163757 | 70 | 333 | 3.0 | 3.0 | 0.00 | 0.00 | 0.00 | 44 | 1013.2 |
| 20260501163254 | 70 | 242 | 4.0 | 5.0 | 0.00 | 0.00 | 0.00 | 45 | 1013.3 |
| 20260501162750 | 70 | 159 | 3.0 | 3.0 | 0.00 | 0.00 | 0.00 | 45 | 1013.2 |
| 20260501162247 | 69 | 104 | 2.0 | 2.0 | 0.00 | 0.00 | 0.00 | 46 | 1013.4 |
| 20260501161744 | 69 | 229 | 1.0 | 1.0 | 0.00 | 0.00 | 0.00 | 46 | 1013.1 |
| 20260501161242 | 70 | 261 | 5.0 | 6.0 | 0.00 | 0.00 | 0.00 | 46 | 1013.1 |
| 20260501160737 | 69 | 166 | 2.0 | 2.0 | 0.00 | 0.00 | 0.00 | 45 | 1013.0 |
| 20260501160235 | 68 | 255 | 3.0 | 3.0 | 0.00 | 0.00 | 0.00 | 50 | 1013.0 |
| 20260501155732 | 68 | 355 | 0.0 | 1.0 | 0.00 | 0.00 | 0.00 | 49 | 1012.9 |
| 20260501155229 | 69 | 231 | 2.0 | 2.0 | 0.00 | 0.00 | 0.00 | 51 | 1013.0 |
| 20260501154726 | 69 | 149 | 0.0 | 0.0 | 0.00 | 0.00 | 0.00 | 49 | 1012.9 |
| 20260501154223 | 67 | 171 | 1.0 | 1.0 | 0.00 | 0.00 | 0.00 | 52 | 1013.1 |